FW4370 Weather Reports


Display with metric or nautical units.
time (UTC)temp
F
wind
direction
speed
MPH
gust
MPH
rain 1hr
in
rain 24hr
in
rain mn
in
humidity
%
barometer
mb
20260903040021 71 216 2.0 7.0 0.00 0.07 0.07 29 1007.9
20260903034520 71 222 2.0 7.0 0.00 0.12 0.07 29 1007.7
20260903033017 71 227 2.0 8.0 0.00 0.12 0.07 29 1007.3
20260903031516 71 225 3.0 8.0 0.00 0.12 0.07 28 1007.0
20260903030018 72 229 2.0 7.0 0.00 0.13 0.07 28 1006.9
20260903024512 72 214 3.0 7.0 0.00 0.13 0.07 27 1006.8
20260903023010 73 221 4.0 8.0 0.00 0.13 0.07 27 1006.7
20260903021510 74 243 3.0 9.0 0.00 0.13 0.07 26 1006.8
20260903020005 75 268 4.0 11.0 0.00 0.13 0.07 26 1006.6
20260903014503 76 264 5.0 12.0 0.00 0.13 0.07 26 1006.8
20260903013105 78 224 6.0 13.0 0.00 0.13 0.07 26 1006.7
20260903011609 79 228 7.0 15.0 0.00 0.13 0.07 26 1006.7
20260903010116 80 221 7.0 15.0 0.00 0.13 0.07 27 1006.6
20260903004554 80 266 9.0 20.0 0.00 0.13 0.07 27 1006.6
20260903003053 80 223 7.0 16.0 0.00 0.13 0.07 27 1006.7
20260903001548 81 232 8.0 15.0 0.00 0.13 0.07 28 1006.6
20260903000045 82 232 9.0 16.0 0.00 0.13 0.07 28 1006.6
20260902234544 82 210 5.0 18.0 0.00 0.13 0.07 29 1006.7
20260902233043 82 233 10.0 18.0 0.00 0.13 0.07 29 1006.7
20260902231551 83 276 8.0 14.0 0.00 0.13 0.07 30 1006.7
20260902230035 82 226 6.0 20.0 0.00 0.13 0.07 30 1006.8
20260902224549 82 257 12.0 26.0 0.00 0.13 0.07 30 1007.0
20260902223036 82 236 6.0 19.0 0.00 0.13 0.07 31 1007.0
20260902221537 82 234 6.0 18.0 0.00 0.13 0.07 32 1007.0
20260902220047 82 226 7.0 17.0 0.00 0.13 0.07 33 1007.0
20260902214521 80 207 8.0 18.0 0.00 0.13 0.07 33 1007.2
20260902213019 81 245 10.0 19.0 0.00 0.13 0.07 33 1007.3
20260902211616 82 217 11.0 19.0 0.00 0.13 0.07 33 1007.7
20260902210020 82 278 9.0 16.0 0.00 0.13 0.07 34 1007.7
20260902204514 82 220 7.0 22.0 0.00 0.13 0.07 35 1007.8
20260902203007 82 231 11.0 23.0 0.00 0.13 0.07 36 1007.9
20260902201517 81 263 9.0 17.0 0.00 0.13 0.07 37 1008.1
20260902200002 81 202 11.0 19.0 0.00 0.13 0.07 38 1008.3
20260902194558 81 219 6.0 18.0 0.00 0.13 0.07 39 1008.4
20260902193105 81 235 9.0 17.0 0.00 0.13 0.07 39 1008.5
20260902191606 80 217 9.0 17.0 0.00 0.13 0.07 40 1008.8
20260902190050 80 217 8.0 18.0 0.00 0.13 0.07 40 1008.8
20260902184547 80 231 8.0 17.0 0.00 0.13 0.07 41 1009.0
20260902183049 79 252 7.0 18.0 0.00 0.13 0.07 42 1009.1
20260902181544 79 243 9.0 17.0 0.00 0.13 0.07 43 1009.4
20260902180037 79 188 7.0 14.0 0.00 0.13 0.07 43 1009.7
20260902174537 78 193 9.0 18.0 0.00 0.13 0.07 43 1009.7
20260902173033 78 225 7.0 14.0 0.00 0.13 0.07 44 1009.9
20260902171531 77 234 8.0 15.0 0.00 0.13 0.07 44 1010.0
20260902170026 77 231 8.0 14.0 0.00 0.13 0.07 45 1010.0
20260902164530 77 238 5.0 13.0 0.00 0.13 0.07 45 1009.8
20260902163020 77 236 6.0 13.0 0.00 0.13 0.07 46 1009.8
20260902161516 76 290 6.0 11.0 0.00 0.13 0.07 48 1009.8
20260902160014 74 224 5.0 13.0 0.00 0.13 0.07 49 1009.7
20260902154508 74 219 4.0 10.0 0.00 0.13 0.07 51 1009.4
20260902153014 73 218 5.0 14.0 0.00 0.13 0.07 53 1009.4
20260902151600 73 217 4.0 12.0 0.00 0.13 0.07 55 1009.3
20260902150055 72 225 6.0 13.0 0.00 0.13 0.07 58 1009.4
20260902144550 72 237 6.0 12.0 0.00 0.13 0.07 61 1009.4
20260902143146 71 217 5.0 10.0 0.00 0.13 0.07 63 1009.6
20260902141541 69 219 1.0 8.0 0.00 0.13 0.07 65 1009.6
20260902140038 67 229 2.0 11.0 0.00 0.13 0.07 66 1009.6
20260902134543 66 230 2.0 6.0 0.00 0.13 0.07 67 1009.4
20260902133034 66 209 0.0 4.0 0.00 0.13 0.07 67 1009.3
20260902131540 65 244 0.0 3.0 0.00 0.13 0.07 67 1009.2
20260902130029 64 261 0.0 1.0 0.00 0.13 0.07 67 1009.2
20260902124529 65 244 0.0 4.0 0.00 0.13 0.07 67 1009.0
20260902123029 65 221 1.0 6.0 0.00 0.13 0.07 66 1008.9
20260902121523 65 253 0.0 1.0 0.01 0.13 0.07 66 1008.8
20260902120022 65 243 0.0 4.0 0.01 0.13 0.07 66 1008.9
20260902114601 65 213 1.0 9.0 0.01 0.13 0.07 66 1008.8
20260902113017 66 217 0.0 5.0 0.01 0.13 0.07 66 1008.9
20260902111515 66 206 0.0 7.0 0.00 0.12 0.06 66 1008.9
20260902110014 66 187 0.0 2.0 0.00 0.12 0.06 66 1009.2
20260902104510 67 208 1.0 5.0 0.00 0.12 0.06 66 1009.0
20260902103007 66 220 0.0 4.0 0.00 0.12 0.06 67 1009.0
20260902101505 66 236 1.0 4.0 0.00 0.12 0.06 67 1009.1
20260902100101 66 232 0.0 2.0 0.00 0.12 0.06 67 1009.2
20260902094559 66 231 0.0 4.0 0.00 0.12 0.06 66 1009.4
20260902093101 65 229 0.0 1.0 0.00 0.12 0.06 66 1009.4
20260902091552 65 232 0.0 2.0 0.00 0.12 0.06 65 1009.4
20260902090049 65 212 0.0 1.0 0.02 0.12 0.06 64 1009.6
20260902084546 65 256 0.0 2.0 0.06 0.12 0.06 63 1009.6
20260902083042 64 293 0.0 2.0 0.06 0.12 0.06 61 1009.6
20260902081537 65 340 2.0 7.0 0.06 0.12 0.06 61 1009.8
20260902080033 69 247 1.0 7.0 0.02 0.08 0.02 61 1010.2
20260902074528 69 229 1.0 6.0 0.00 0.06 0.00 62 1009.8
20260902073023 68 236 1.0 3.0 0.00 0.06 0.00 62 1009.8
20260902071517 68 243 0.0 1.0 0.00 0.06 0.00 63 1009.7
20260902070019 67 243 0.0 1.0 0.00 0.06 0.06 63 1009.9
20260902064512 67 253 0.0 1.0 0.00 0.06 0.06 64 1010.0
20260902063010 66 244 0.0 1.0 0.00 0.06 0.06 64 1010.0
20260902061520 66 252 0.0 2.0 0.00 0.06 0.06 64 1010.1
20260902060004 66 240 0.0 1.0 0.00 0.06 0.06 65 1010.3
20260902054612 66 248 0.0 1.0 0.00 0.06 0.06 65 1010.3
20260902053105 66 236 0.0 1.0 0.00 0.06 0.06 66 1010.3
20260902051552 66 274 0.0 0.0 0.00 0.06 0.06 65 1010.4
20260902050055 65 293 0.0 1.0 0.00 0.06 0.06 64 1010.7
20260902044552 64 293 0.0 0.0 0.00 0.06 0.06 63 1010.3
20260902043048 64 323 0.0 0.0 0.00 0.06 0.06 62 1010.1
20260902041547 64 323 0.0 0.0 0.00 0.06 0.06 60 1010.0